Hourly Weather Roundup
Issued by NWS Central Illinois

Home | Current Version | Previous Version | Text Only | Print | Product List | Glossary On
Versions: 1 2 3 4 5 6 7 8 9 10 11 12 13 14 15 16 17 18 19 20 21 22 23 24 25 26 27 28 29 30 31 32 33 34 35 36 37 38 39 40 41 42 43 44 45 46 47 48 49 50
000
NZUS43 KILX 290010
HWRILX

AREA WEATHER ROUNDUP
NATIONAL WEATHER SERVICE, LINCOLN IL
600 PM CST WED JAN 28 2015


CITY           SKY/WX    TMP DP  RH WIND       PRES   REMARKS
BLOOMINGTON    PTCLDY    34  30  85 S23G30    29.95F WCI  22
6HR MIN TEMP:  34; 6HR MAX TEMP:  40;

CHAMPAIGN      PTCLDY    34  26  72 SE16      30.02F WCI  24
6HR MIN TEMP:  33; 6HR MAX TEMP:  37;

DECATUR        CLEAR     36  28  73 SE13      30.00F WCI  27
6HR MIN TEMP:  36; 6HR MAX TEMP:  41;

FLORA          CLEAR     37  29  72 SE12      30.08F WCI  30
6HR MIN TEMP:  37; 6HR MAX TEMP:  42;

GALESBURG      MOCLDY    37  32  81 SE13G22   29.84F WCI  29
JACKSONVILLE   MOCLDY    43  32  66 SE15G21   29.89F
6HR MIN TEMP:  41; 6HR MAX TEMP:  46;

LACON          PTCLDY    35  29  79 SE16      29.92F WCI  25
6HR MIN TEMP:  33; 6HR MAX TEMP:  38;

LAWRENCEVILLE  CLEAR     34  25  69 SE10      30.13F WCI  26
6HR MIN TEMP:  34; 6HR MAX TEMP:  42;

LITCHFIELD     MOCLDY    40  30  68 SE18G24   29.96F WCI  30
$$


CITY           SKY/WX    TMP DP  RH WIND       PRES   REMARKS
LINCOLN        PTCLDY    37  32  82 SE13      29.96F WCI  28
6HR MIN TEMP:  37; 6HR MAX TEMP:  41;

MACOMB         MOCLDY    38  33  81 SE16      29.86F WCI  29
MATTOON        PTCLDY    36  25  64 SE18G26   30.02F WCI  26
6HR MIN TEMP:  34; 6HR MAX TEMP:  39;

MT CARMEL AP   CLEAR     36  27  69 SE9       30.12F WCI  29
OLNEY-NOBLE AP CLEAR     37  28  70 SE10      30.09F WCI  30
PARIS          CLEAR     34  26  71 SE16      30.07F WCI  24
6HR MIN TEMP:  33; 6HR MAX TEMP:  37;

PEORIA         MOCLDY    39  30  70 S20G26    29.92F WCI  29
6HR MIN TEMP:  37; 6HR MAX TEMP:  42;

PONTIAC        PTCLDY    35  29  79 SE16      29.98F WCI  25
RANTOUL        PTCLDY    35  27  72 SE17      30.01F WCI  24
6HR MIN TEMP:  33; 6HR MAX TEMP:  37;

ROBINSON       PTCLDY    36  23  60 SE12      30.12F WCI  27
6HR MIN TEMP:  35; 6HR MAX TEMP:  40;

SPRINGFIELD    PTCLDY    40  31  70 S22G29    29.94F WCI  30
6HR MIN TEMP:  38; 6HR MAX TEMP:  43;

TAYLORVILLE    PTCLDY    36  32  87 SE17      29.97F WCI  25
$$

...REGIONAL REPORTS...


CITY           SKY/WX    TMP DP  RH WIND       PRES   REMARKS
CHICAGO O`HARE CLOUDY    31  21  66 SE16G23   29.99F WCI  20
KANKAKEE       PTCLDY    33  26  76 SE13      30.02F WCI  24
MOLINE         CLOUDY    36  30  79 SE10      29.84F WCI  28
MOUNT VERNON   PTCLDY    43  28  56 SE7       30.07F
PITTSFIELD     CLOUDY    42  33  69 SE16      29.86F WCI  35
QUINCY         CLOUDY    43  32  65 SE14      29.81F
ROCKFORD       MOCLDY    32  24  72 S20G29    29.94F WCI  20
$$


CITY           SKY/WX    TMP DP  RH WIND       PRES   REMARKS
BURLINGTON     CLOUDY    40  32  73 SE14      29.80F WCI  32
CEDAR RAPIDS   CLOUDY    36  32  85 SE14      29.75F WCI  27
DES MOINES     CLOUDY    50  37  61 E7        29.71R
KIRKSVILLE     CLOUDY    48  38  68 SE12      29.74S
OTTUMWA        CLOUDY    43  34  70 SE13      29.72F
ST LOUIS       MOCLDY    47  32  56 SE14G22   29.95F
$$


CITY           SKY/WX    TMP DP  RH WIND       PRES   REMARKS
TERRE HAUTE    CLEAR     35  20  54 SE13      30.10F WCI  26
EVANSVILLE     CLEAR     41  23  48 SE6       30.15F
INDIANAPOLIS   MOCLDY    30  17  58 SE13      30.15S WCI  20
LAFAYETTE      MOCLDY    33  20  58 SE12      30.09F WCI  24
MADISON        CLOUDY    32  21  64 S15       29.89F WCI  22
MILWAUKEE      CLOUDY    32  22  66 S18       29.98F WCI  20
$$




USA.gov is the U.S. government's official web portal to all federal, state and local government web resources and services.